Denver, CO

12:24 PM MDT on April 27, 2017 (GMT -0600)
Front Range

Weather History for KFTG - August, 2013

Change the Weather History Date:

Saturday, August 10, 2013

  Actual Average (KBKF) Record (KBKF)
Temperature  
Mean Temperature 66 °F -  
Max Temperature 80 °F 82 °F 94 °F (2016)
Min Temperature 51 °F 57 °F 51 °F (2013)
Growing Degree Days 16 (Base 50)    
Moisture  
Dew Point 50 °F    
Average Humidity 70    
Maximum Humidity 88    
Minimum Humidity 30    
Precipitation  
Precipitation 0.00 in - - ()
Sea Level Pressure  
Sea Level Pressure 30.26 in    
Wind  
Wind Speed 8 mph (South)    
Max Wind Speed 22 mph    
Max Gust Speed 28 mph    
Visibility 10 miles    
Events      
Averages and records for this station are not official NWS values.
T = Trace of Precipitation, MM = Missing Value Source: NWS Daily Summary

Daily Weather History Graph

Daily Weather History Graph

Search for Another Location

Airport or City:

Trip Planner

Search our weather history database for the weather conditions in past years. The results will help you decide how hot, cold, wet, or windy it might be!

Date:

Astronomy

Aug. 10, 2013 Rise Set
Actual Time 6:05 AM MDT 8:00 PM MDT
Civil Twilight 5:36 AM MDT 8:29 PM MDT
Nautical Twilight 5:00 AM MDT 9:05 PM MDT
Astronomical Twilight 4:22 AM MDT 9:43 PM MDT
Moon 9:54 AM MDT (8/10) 9:44 PM MDT (8/10)
Length of Visible Light 14h 53m
Length of Day
13h 54m
Waxing Crescent, 14% of the Moon is Illuminated
Aug 10
Waxing Crescent
Aug 14
First Quarter
Aug 20
Full
Aug 28
Last Quarter
Sep 5
New

Hourly Weather History & Observations

Time (MDT) Temp. Dew Point Humidity Pressure Visibility Wind Dir Wind Speed Gust Speed Precip Events Conditions
12:16 AM 60.8 °F 50.0 °F 68% 30.27 in 10.0 mi SSE 4.6 mph - N/A   Clear
12:36 AM 59.0 °F 50.0 °F 72% 30.27 in 10.0 mi SSE 8.1 mph - N/A   Clear
12:56 AM 57.2 °F 50.0 °F 77% 30.27 in 10.0 mi SE 10.4 mph - N/A   Clear
1:16 AM 57.2 °F 50.0 °F 77% 30.27 in 10.0 mi SSE 9.2 mph - N/A   Clear
1:36 AM 59.0 °F 50.0 °F 72% 30.27 in 10.0 mi SSE 9.2 mph - N/A   Clear
1:56 AM 59.0 °F 50.0 °F 72% 30.27 in 10.0 mi SE 9.2 mph - N/A   Clear
2:16 AM 55.4 °F 50.0 °F 82% 30.27 in 10.0 mi SSE 8.1 mph - N/A   Clear
2:36 AM 55.4 °F 50.0 °F 82% 30.27 in 10.0 mi South 4.6 mph - N/A   Clear
2:56 AM 59.0 °F 50.0 °F 72% 30.27 in 10.0 mi SSW 9.2 mph - N/A   Clear
3:16 AM 55.4 °F 50.0 °F 82% 30.26 in 10.0 mi South 5.8 mph - N/A   Clear
3:36 AM 55.4 °F 48.2 °F 77% 30.27 in 10.0 mi SSE 4.6 mph - N/A   Clear
3:56 AM 53.6 °F 48.2 °F 82% 30.26 in 10.0 mi SSE 4.6 mph - N/A   Clear
4:16 AM 53.6 °F 50.0 °F 88% 30.26 in 10.0 mi South 6.9 mph - N/A   Clear
4:36 AM 53.6 °F 48.2 °F 82% 30.26 in 10.0 mi South 6.9 mph - N/A   Clear
4:56 AM 55.4 °F 48.2 °F 77% 30.26 in 10.0 mi SSW 6.9 mph - N/A   Clear
5:16 AM 55.4 °F 48.2 °F 77% 30.26 in 10.0 mi SSW 6.9 mph - N/A   Clear
5:36 AM 55.4 °F 48.2 °F 77% 30.26 in 10.0 mi SW 5.8 mph - N/A   Clear
5:56 AM 55.4 °F 48.2 °F 77% 30.27 in 10.0 mi SSW 5.8 mph - N/A   Clear
6:16 AM 51.8 °F 48.2 °F 88% 30.28 in 10.0 mi SSW 9.2 mph - N/A   Clear
6:35 AM 55.4 °F 50.0 °F 82% 30.28 in 10.0 mi SSW 10.4 mph - N/A   Clear
6:53 AM 57.2 °F 48.2 °F 72% 30.28 in 10.0 mi SW 10.4 mph - N/A   Clear
7:50 AM 62.6 °F 51.8 °F 68% 30.28 in 40.0 mi SSW 9.2 mph - N/A   Partly Cloudy
9:48 AM 71.6 °F 50.0 °F 46% 30.28 in 40.0 mi WSW 5.8 mph - N/A   Partly Cloudy
10:58 AM 77.0 °F 48.2 °F 36% 30.27 in 40.0 mi NW 4.6 mph - N/A   Partly Cloudy
11:47 AM 80.6 °F 46.4 °F 30% 30.26 in 40.0 mi Calm Calm - N/A   Partly Cloudy
9:16 PM 64.4 °F 53.6 °F 68% 30.27 in 10.0 mi SSE 21.9 mph 27.6 mph N/A   Clear
9:35 PM 64.4 °F 51.8 °F 64% 30.25 in 10.0 mi SSE 19.6 mph 24.2 mph N/A   Clear
9:55 PM 64.4 °F 51.8 °F 64% 30.25 in 10.0 mi South 13.8 mph 18.4 mph N/A   Clear
10:16 PM 66.2 °F 50.0 °F 56% 30.23 in 10.0 mi South 4.6 mph - N/A   Clear
10:36 PM 68.0 °F 50.0 °F 52% 30.23 in 10.0 mi SSW 9.2 mph - N/A   Clear
10:56 PM 64.4 °F 53.6 °F 68% 30.23 in 10.0 mi SSE 11.5 mph - N/A   Clear
11:16 PM 64.4 °F 51.8 °F 64% 30.22 in 10.0 mi South 6.9 mph - N/A   Clear
11:36 PM 64.4 °F 51.8 °F 64% 30.23 in 10.0 mi SSE 10.4 mph - N/A   Clear
11:55 PM 64.4 °F 51.8 °F 64% 30.24 in 10.0 mi South 5.8 mph - N/A   Clear